Preview of NWS' New Version of Forecast
This preview is not operational and should not be used for support decisions.

Regional Weather Roundup (RWR)

Issued by National Weather Service (NWS)

                            
000
ASUS43 KLSX 180957
RWRMO 

WEATHER SUMMARY FOR MISSOURI
NATIONAL WEATHER SERVICE SPRINGFIELD MO
500 AM CDT SAT MAY 18 2019

NOTE: "FAIR" INDICATES FEW OR NO CLOUDS BELOW 12,000 FEET WITH NO
       SIGNIFICANT WEATHER AND/OR OBSTRUCTIONS TO VISIBILITY.
       CURRENT SKY AND/OR WEATHER CONDITIONS ARE NOT AVAILABLE FOR
       CHILLICOTHE AND FARMINGTON.

MOZ001>031-035>038-043-044-053-054-181100-
...NORTHERN AND WESTERN MISSOURI...
  
CITY           SKY/WX    TMP DP  RH WIND       PRES   REMARKS
KANSAS CTY INT CLOUDY    72  61  68 S16G24    29.64F                  
LEE'S SUMMIT   PTCLDY    69  57  65 S14       29.68S                  
ST JOSEPH      CLOUDY    73  64  73 S14G25    29.63S                  
CHILLICOTHE      N/A     71  57  61 S9        29.70S                  
     
$$
MOZ066>068-077>081-088>096-101>105-181100-
...SOUTHWEST MISSOURI...
  
CITY           SKY/WX    TMP DP  RH WIND       PRES   REMARKS
SPRINGFIELD    CLOUDY    68  56  65 S14       29.77R                  
JOPLIN         CLOUDY    72  61  68 S15       29.73R                  
               
$$
MOZ032>034-039>042-045>050-055>058-069>072-181100-
...CENTRAL MISSOURI...  
  
CITY           SKY/WX    TMP DP  RH WIND       PRES   REMARKS
COLUMBIA       NOT AVBL                                               
JEFFERSON CITY CLOUDY    69  58  67 SE8       29.77S                  
ROLLA          PTCLDY    69  56  62 S10G23    29.82S                  
SEDALIA        CLOUDY    66  56  70 S14       29.74S                  
WARRENSBURG    MOCLDY    70  55  60 S16G22    29.70S                  
               
$$
MOZ051-052-059>065-181100-
...EAST CENTRAL MISSOURI...
  
CITY           SKY/WX    TMP DP  RH WIND       PRES   REMARKS
ST LOUIS INTL  PTCLDY    69  58  67 S8        29.83S                  
                   
$$
MOZ072>076-082>087-097>100-106>115-181100-
...SOUTH CENTRAL AND SOUTHEAST MISSOURI...
  
CITY           SKY/WX    TMP DP  RH WIND       PRES   REMARKS
CAPE GIRARDEAU FAIR      69  61  75 S8        29.87S                  
POPLAR BLUFF   FAIR      64  62  93 CALM      29.87R                  
WEST PLAINS    CLEAR     66  57  72 S6        29.86F                  
                                       
$$